Weather History for KACQ - January, 2013

Change the Weather History Date:

Saturday, January 12, 2013

  Actual Average Record
Temperature  
Mean Temperature 24 °F -  
Max Temperature 39 °F 17 °F 46 °F (1928)
Min Temperature 8 °F 0 °F -29 °F (1974)
Degree Days  
Heating Degree Days 42    
Moisture  
Dew Point 11 °F    
Average Humidity 71    
Maximum Humidity 93    
Minimum Humidity 58    
Precipitation  
Precipitation 0.00 in - - ()
Sea Level Pressure  
Sea Level Pressure 29.88 in    
Wind  
Wind Speed 19 mph (West)    
Max Wind Speed 30 mph    
Max Gust Speed 37 mph    
Visibility 9 miles    
Events Snow    
Averages and records for this station are not official NWS values.
T = Trace of Precipitation, MM = Missing Value Source: NWS Daily Summary

Daily Weather History Graph

Daily Weather History Graph

Search for Another Location

Airport or City:

Trip Planner

Search our weather history database for the weather conditions in past years. The results will help you decide how hot, cold, wet, or windy it might be!

Date:

Astronomy

Jan. 12, 2013 Rise Set
Actual Time 7:47 AM CST 4:58 PM CST
Civil Twilight 7:14 AM CST 5:30 PM CST
Nautical Twilight 6:38 AM CST 6:06 PM CST
Astronomical Twilight 6:04 AM CST 6:41 PM CST
Moon 8:02 AM CST (1/12) 6:32 PM CST (1/12)
Length of Visible Light 10h 15m
Length of Day
9h 11m
New Moon, 1% of the Moon is Illuminated
Jan 12
New Moon
Jan 18
First Quarter
Jan 26
Full
Feb 3
Last Quarter
Feb 10
New

Hourly Weather History & Observations

Time (CST) Temp. Windchill Dew Point Humidity Pressure Visibility Wind Dir Wind Speed Gust Speed Precip Events Conditions
12:14 AM 39.2 °F 31.2 °F 35.6 °F 87% 29.44 in 4.0 mi SW 13.8 mph - N/A   Overcast
12:34 AM 39.2 °F 30.2 °F 35.6 °F 87% 29.47 in 7.0 mi SW 17.3 mph - N/A   Overcast
12:55 AM 37.4 °F 27.5 °F 33.8 °F 87% 29.49 in 10.0 mi SW 18.4 mph 24.2 mph N/A   Overcast
1:14 AM 35.6 °F 25.2 °F 32.0 °F 87% 29.49 in 7.0 mi SW 18.4 mph 23.0 mph N/A   Overcast
1:34 AM 33.8 °F 21.3 °F 32.0 °F 93% 29.51 in 10.0 mi SW 24.2 mph 27.6 mph N/A   Overcast
2:14 AM 33.8 °F 20.8 °F 32.0 °F 93% 29.55 in 7.0 mi WSW 26.5 mph 32.2 mph N/A   Overcast
2:34 AM 32.0 °F 20.5 °F 28.4 °F 87% 29.57 in 5.0 mi West 18.4 mph 27.6 mph N/A   Overcast
2:54 AM 32.0 °F 19.8 °F 28.4 °F 87% 29.59 in 4.0 mi West 20.7 mph 27.6 mph N/A   Overcast
3:14 AM 30.2 °F 16.8 °F 26.6 °F 86% 29.61 in 4.0 mi WSW 23.0 mph 29.9 mph N/A   Overcast
3:34 AM 30.2 °F 17.8 °F 26.6 °F 86% 29.62 in 2.5 mi West 19.6 mph 25.3 mph N/A   Overcast
3:54 AM 30.2 °F 15.7 °F 26.6 °F 86% 29.63 in 4.0 mi WSW 27.6 mph 33.4 mph N/A   Overcast
4:14 AM 28.4 °F 12.7 °F 23.0 °F 80% 29.65 in 7.0 mi WSW 29.9 mph 33.4 mph N/A   Overcast
4:34 AM 26.6 °F 11.7 °F 21.2 °F 80% 29.66 in 10.0 mi WSW 24.2 mph 33.4 mph N/A   Overcast
4:54 AM 24.8 °F 8.1 °F 19.4 °F 80% 29.68 in 10.0 mi WSW 28.8 mph 36.8 mph N/A   Overcast
5:14 AM 24.8 °F 9.3 °F 19.4 °F 80% 29.70 in 7.0 mi WSW 24.2 mph 32.2 mph N/A   Overcast
5:34 AM 24.8 °F 9.0 °F 17.6 °F 74% 29.73 in 10.0 mi WSW 25.3 mph 31.1 mph N/A   Overcast
5:54 AM 23.0 °F 6.0 °F 14.0 °F 68% 29.74 in 10.0 mi WSW 27.6 mph 33.4 mph N/A   Overcast
6:14 AM 23.0 °F 6.0 °F 14.0 °F 68% 29.76 in 10.0 mi WSW 27.6 mph 34.5 mph N/A Snow Light Snow
6:34 AM 23.0 °F 6.9 °F 14.0 °F 68% 29.78 in 7.0 mi WSW 24.2 mph 31.1 mph N/A Snow Light Snow
6:54 AM 19.4 °F 1.4 °F 12.2 °F 74% 29.80 in 7.0 mi WSW 26.5 mph 33.4 mph N/A Snow Light Snow
7:14 AM 19.4 °F 2.1 °F 10.4 °F 68% 29.82 in 10.0 mi West 24.2 mph 31.1 mph N/A   Overcast
7:34 AM 19.4 °F 2.5 °F 10.4 °F 68% 29.83 in 10.0 mi West 23.0 mph 28.8 mph N/A   Mostly Cloudy
7:54 AM 19.4 °F 3.2 °F 10.4 °F 68% 29.84 in 10.0 mi WSW 20.7 mph 25.3 mph N/A   Clear
8:15 AM 19.4 °F 2.5 °F 12.2 °F 74% 29.86 in 4.0 mi WSW 23.0 mph 28.8 mph N/A Snow Light Snow
8:34 AM 17.6 °F -0.3 °F 8.6 °F 68% 29.88 in 5.0 mi WSW 24.2 mph - N/A Snow Light Snow
8:54 AM 17.6 °F 0.5 °F 8.6 °F 68% 29.88 in 10.0 mi West 21.9 mph 27.6 mph N/A   Mostly Cloudy
9:15 AM 17.6 °F 1.7 °F 8.6 °F 68% 29.90 in 10.0 mi WSW 18.4 mph 29.9 mph N/A   Mostly Cloudy
9:34 AM 17.6 °F -0.3 °F 8.6 °F 68% 29.91 in 10.0 mi West 24.2 mph 29.9 mph N/A   Mostly Cloudy
9:54 AM 19.4 °F 2.5 °F 8.6 °F 63% 29.91 in 10.0 mi West 23.0 mph 31.1 mph N/A   Mostly Cloudy
10:14 AM 17.6 °F 0.9 °F 6.8 °F 63% 29.93 in 10.0 mi West 20.7 mph 28.8 mph N/A   Mostly Cloudy
10:34 AM 17.6 °F 0.5 °F 6.8 °F 63% 29.94 in 10.0 mi West 21.9 mph - N/A   Mostly Cloudy
10:55 AM 19.4 °F 3.6 °F 10.4 °F 68% 29.94 in 10.0 mi West 19.6 mph 25.3 mph N/A   Mostly Cloudy
11:14 AM 19.4 °F 4.1 °F 10.4 °F 68% 29.94 in 10.0 mi West 18.4 mph 25.3 mph N/A   Overcast
11:54 AM 17.6 °F 2.7 °F 6.8 °F 63% 29.96 in 10.0 mi West 16.1 mph 25.3 mph N/A   Mostly Cloudy
12:14 PM 17.6 °F 0.9 °F 8.6 °F 68% 29.95 in 10.0 mi WSW 20.7 mph 25.3 mph N/A   Overcast
12:34 PM 17.6 °F 1.7 °F 8.6 °F 68% 29.96 in 10.0 mi West 18.4 mph 26.5 mph N/A   Overcast
12:54 PM 17.6 °F 1.7 °F 6.8 °F 63% 29.97 in 10.0 mi West 18.4 mph 26.5 mph N/A   Overcast
1:35 PM 17.6 °F 0.5 °F 8.6 °F 68% 29.96 in 10.0 mi West 21.9 mph - N/A   Overcast
1:54 PM 17.6 °F 0.9 °F 6.8 °F 63% 29.96 in 7.0 mi West 20.7 mph 26.5 mph N/A   Overcast
2:14 PM 17.6 °F 0.1 °F 6.8 °F 63% 29.98 in 10.0 mi West 23.0 mph 26.5 mph N/A   Overcast
2:34 PM 17.6 °F 2.2 °F 8.6 °F 68% 29.98 in 10.0 mi WNW 17.3 mph 20.7 mph N/A   Overcast
2:55 PM 17.6 °F 2.7 °F 6.8 °F 63% 30.00 in 10.0 mi West 16.1 mph 21.9 mph N/A   Overcast
3:14 PM 17.6 °F 2.2 °F 6.8 °F 63% 30.00 in 7.0 mi West 17.3 mph - N/A   Overcast
3:35 PM 17.6 °F 1.7 °F 5.0 °F 58% 30.00 in 10.0 mi West 18.4 mph - N/A   Overcast
3:54 PM 17.6 °F 2.2 °F 5.0 °F 58% 30.00 in 10.0 mi West 17.3 mph - N/A   Overcast
4:14 PM 14.0 °F -3.0 °F 5.0 °F 67% 30.01 in 10.0 mi West 18.4 mph - N/A   Scattered Clouds
4:35 PM 14.0 °F -0.8 °F 5.0 °F 67% 30.03 in 10.0 mi West 13.8 mph - N/A   Scattered Clouds
4:54 PM 14.0 °F -1.4 °F 5.0 °F 67% 30.03 in 10.0 mi West 15.0 mph - N/A   Mostly Cloudy
5:14 PM 14.0 °F -2.0 °F 5.0 °F 67% 30.03 in 7.0 mi West 16.1 mph - N/A   Overcast
5:34 PM 14.0 °F -0.2 °F 5.0 °F 67% 30.03 in 10.0 mi West 12.7 mph - N/A   Scattered Clouds
6:15 PM 12.2 °F -3.1 °F 3.2 °F 67% 30.04 in 10.0 mi West 13.8 mph - N/A   Scattered Clouds
6:34 PM 12.2 °F -3.1 °F 1.4 °F 62% 30.04 in 10.0 mi West 13.8 mph - N/A   Clear
7:14 PM 12.2 °F -2.5 °F 3.2 °F 67% 30.04 in 10.0 mi WNW 12.7 mph - N/A   Clear
7:34 PM 12.2 °F -3.1 °F 1.4 °F 62% 30.06 in 10.0 mi West 13.8 mph 18.4 mph N/A   Clear
7:55 PM 12.2 °F -3.1 °F 3.2 °F 67% 30.06 in 10.0 mi WNW 13.8 mph - N/A   Scattered Clouds
8:15 PM 12.2 °F -0.2 °F 3.2 °F 67% 30.08 in 10.0 mi WNW 9.2 mph - N/A   Scattered Clouds
8:35 PM 12.2 °F -1.8 °F 3.2 °F 67% 30.08 in 10.0 mi WNW 11.5 mph - N/A   Scattered Clouds
8:54 PM 12.2 °F -2.5 °F 3.2 °F 67% 30.07 in 10.0 mi WNW 12.7 mph - N/A   Scattered Clouds
9:14 PM 12.2 °F -1.0 °F 3.2 °F 67% 30.08 in 10.0 mi WNW 10.4 mph - N/A   Scattered Clouds
9:35 PM 12.2 °F -3.1 °F 3.2 °F 67% 30.06 in 10.0 mi WNW 13.8 mph - N/A   Clear
9:54 PM 10.4 °F -6.0 °F 1.4 °F 67% 30.07 in 10.0 mi WNW 15.0 mph - N/A   Scattered Clouds
10:14 PM 10.4 °F -5.4 °F 1.4 °F 67% 30.06 in 10.0 mi WNW 13.8 mph 17.3 mph N/A   Scattered Clouds
10:34 PM 8.6 °F -8.3 °F -0.4 °F 67% 30.05 in 10.0 mi WNW 15.0 mph 18.4 mph N/A   Scattered Clouds
10:54 PM 8.6 °F -7.0 °F -0.4 °F 67% 30.07 in 10.0 mi WNW 12.7 mph - N/A   Scattered Clouds
11:14 PM 8.6 °F -7.0 °F -0.4 °F 67% 30.07 in 10.0 mi WNW 12.7 mph - N/A   Scattered Clouds
11:34 PM 8.6 °F -8.3 °F -0.4 °F 67% 30.07 in 10.0 mi WNW 15.0 mph - N/A   Scattered Clouds
11:54 PM 8.6 °F -7.0 °F -0.4 °F 67% 30.07 in 10.0 mi WNW 12.7 mph - N/A   Mostly Cloudy